Location: Sungai Dangang
(2.7500°N, 113.8333°E)
Time: 23:10:44
(UTC+00:00)

Hubble Space Telescope - Pass Details

Date: 16 May 2021
Orbit: 535 x 539 km, 28.5° (Epoch: 15 June)

Event Time Altitude Azimuth Distance (km) Brightness Sun altitude
Exits shadow 20:05:52 21° 31° (NNE) 1,223 3.0 -30.6°
Drops below altitude 10° 20:07:27 10° 42° (NE) 1,772 4.2 -30.2°
Sets 20:09:47 0° 49° (NE) 2,660 5.4 -29.7°
